LKPR Weather Reports


Display with metric or nautical units.
time (UTC)temp
F
wind
direction
speed
MPH
gust
MPH
rain 1hr
in
rain 24hr
in
rain mn
in
humidity
%
barometer
mb
20260508203204 46 10 6.0 0.0 0.00 0.00 0.00 87 1019.0
20260508201804 46 340 5.0 0.0 0.00 0.00 0.00 87
20260508200203 46 360 6.0 0.0 0.00 0.00 0.00 87 1019.0
20260508193202 48 360 8.0 0.0 0.00 0.00 0.00 87 1019.0
20260508191903 48 360 5.0 0.0 0.00 0.00 0.00 87
20260508190203 48 20 8.0 0.0 0.00 0.00 0.00 87 1019.0
20260508183202 50 10 8.0 0.0 0.00 0.00 0.00 81 1018.0
20260508181801 52 30 12.0 0.0 0.00 0.00 0.00 76
20260508180203 52 10 10.0 0.0 0.00 0.00 0.00 76 1018.0
20260508173203 54 10 12.0 0.0 0.00 0.00 0.00 71 1018.0
20260508171801 54 10 12.0 0.0 0.00 0.00 0.00 71
20260508170203 55 20 9.0 0.0 0.00 0.00 0.00 66 1018.0
20260508163202 55 20 7.0 0.0 0.00 0.00 0.00 66 1018.0
20260508162002 55 20 7.0 0.0 0.00 0.00 0.00 62
20260508160203 55 10 8.0 0.0 0.00 0.00 0.00 66 1018.0
20260508153202 57 10 9.0 0.0 0.00 0.00 0.00 62 1018.0
20260508151806 55 360 9.0 0.0 0.00 0.00 0.00 66
20260508150203 55 10 8.0 0.0 0.00 0.00 0.00 71 1018.0
20260508143203 55 30 7.0 0.0 0.00 0.00 0.00 66 1018.0
20260508141804 55 360 7.0 0.0 0.00 0.00 0.00 62
20260508140203 55 20 6.0 0.0 0.00 0.00 0.00 66 1018.0
20260508133203 54 30 7.0 0.0 0.00 0.00 0.00 71 1018.0
20260508131901 54 350 7.0 0.0 0.00 0.00 0.00 66
20260508130203 54 20 7.0 0.0 0.00 0.00 0.00 71 1018.0
20260508123202 54 20 9.0 0.0 0.00 0.00 0.00 71 1018.0
20260508121802 55 20 9.0 0.0 0.00 0.00 0.00 66
20260508120202 55 360 6.0 0.0 0.00 0.00 0.00 66 1018.0
20260508113203 57 20 7.0 0.0 0.00 0.00 0.00 62 1018.0
20260508111805 55 350 7.0 0.0 0.00 0.00 0.00 62
20260508110203 55 320 6.0 0.0 0.00 0.00 0.00 66 1018.0
20260508103202 54 360 7.0 0.0 0.00 0.00 0.00 71 1018.0
20260508102010 54 350 5.0 0.0 0.00 0.00 0.00 71
20260508100203 54 340 7.0 0.0 0.00 0.00 0.00 71 1018.0
20260508093202 52 340 5.0 0.0 0.00 0.00 0.00 76 1018.0
20260508091802 52 310 5.0 0.0 0.00 0.00 0.00 71
20260508090202 52 310 6.0 0.0 0.00 0.00 0.00 76 1018.0
20260508083203 52 310 6.0 0.0 0.00 0.00 0.00 76 1018.0
20260508081801 50 280 5.0 0.0 0.00 0.00 0.00 81
20260508080202 50 300 7.0 0.0 0.00 0.00 0.00 87 1018.0
20260508073202 50 320 5.0 0.0 0.00 0.00 0.00 81 1018.0
20260508071905 48 340 5.0 0.0 0.00 0.00 0.00 87
20260508070202 48 0 3.0 0.0 0.00 0.00 0.00 87 1018.0
20260508063203 48 360 6.0 0.0 0.00 0.00 0.00 87 1017.0
20260508061804 48 360 5.0 0.0 0.00 0.00 0.00 87
20260508060203 48 360 6.0 0.0 0.00 0.00 0.00 87 1017.0
20260508053203 46 10 8.0 0.0 0.00 0.00 0.00 93 1017.0
20260508051803 46 360 7.0 0.0 0.00 0.00 0.00 93
20260508050203 46 350 8.0 0.0 0.00 0.00 0.00 93 1017.0
20260508044203 46 340 7.0 0.0 0.00 0.00 0.00 93 1017.0
20260508043202 46 340 7.0 0.0 0.00 0.00 0.00 93 1017.0
20260508042018 46 340 5.0 0.0 0.00 0.00 0.00 93
20260508040203 46 340 6.0 0.0 0.00 0.00 0.00 93 1017.0
20260508033203 46 350 6.0 0.0 0.00 0.00 0.00 93 1017.0
20260508031801 46 340 5.0 0.0 0.00 0.00 0.00 93
20260508030203 46 340 6.0 0.0 0.00 0.00 0.00 93 1016.0
20260508023202 46 340 7.0 0.0 0.00 0.00 0.00 93 1016.0
20260508021802 46 350 7.0 0.0 0.00 0.00 0.00 87
20260508020202 46 350 8.0 0.0 0.00 0.00 0.00 93 1016.0
20260508013203 46 340 7.0 0.0 0.00 0.00 0.00 93 1016.0
20260508011901 46 340 7.0 0.0 0.00 0.00 0.00 93
20260508010203 46 340 8.0 0.0 0.00 0.00 0.00 93 1016.0
20260508003202 46 350 9.0 0.0 0.00 0.00 0.00 93 1016.0
20260508001801 46 350 9.0 0.0 0.00 0.00 0.00 99
20260508000204 46 340 8.0 0.0 0.00 0.00 0.00 100 1016.0
20260507233202 46 340 9.0 0.0 0.00 0.00 0.00 100 1016.0
20260507231801 46 340 7.0 0.0 0.00 0.00 0.00 99
20260507230303 48 350 7.0 0.0 0.00 0.00 0.00 93 1016.0
20260507223202 48 360 7.0 0.0 0.00 0.00 0.00 93 1016.0
20260507222105 48 350 9.0 0.0 0.00 0.00 0.00 93
20260507220204 48 340 8.0 0.0 0.00 0.00 0.00 93 1016.0
20260507213202 48 360 9.0 0.0 0.00 0.00 0.00 100 1016.0
20260507211804 48 20 9.0 0.0 0.00 0.00 0.00 93
20260507210203 50 10 8.0 0.0 0.00 0.00 0.00 93 1016.0
20260507205503 50 10 8.0 0.0 0.00 0.00 0.00 93 1016.0